カタログに戻る

APRIZESAT 6

運用中通信SSO
NORAD 37793·PAYLOAD·🇺🇸 United States

打ち上げ Aug 17, 2011 から Dombarovsky

Loading…

次のパス (今後24時間)

TLE

最新Source: Space-Track

元期: Sep 14, 2026, 06:01 UTC

1 37793U 11044F   26257.25099544  .00000458  00000-0  71855-4 0  9996
2 37793  98.2284 169.5390 0043420 159.2112 353.4234 14.77021385810293

AllMySatでAPRIZESAT 6をリアルタイム追跡

Download on the App Store